FW0209 Weather Reports


Display with metric or nautical units.
time (UTC)temp
F
wind
direction
speed
MPH
gust
MPH
rain 1hr
in
rain 24hr
in
rain mn
in
humidity
%
barometer
mb
20260504020032 48 173 0.0 0.0 0.00 0.00 0.00 81 1022.2
20260504014531 49 360 0.0 2.0 0.00 0.00 0.00 81 1022.3
20260504013050 49 360 0.0 2.0 0.00 0.00 0.00 81 1022.3
20260504011526 49 360 0.0 1.0 0.00 0.00 0.00 80 1022.0
20260504010029 50 186 0.0 3.0 0.00 0.00 0.00 79 1022.1
20260504004527 51 217 1.0 3.0 0.00 0.00 0.00 79 1022.0
20260504003023 51 219 0.0 0.0 0.00 0.00 0.00 79 1022.0
20260504001525 51 223 0.0 4.0 0.00 0.00 0.00 79 1022.0
20260504000020 52 223 3.0 6.0 0.00 0.00 0.00 79 1022.1
20260503234522 52 238 7.0 10.0 0.00 0.00 0.00 79 1022.1
20260503233038 52 246 6.0 9.0 0.00 0.00 0.00 79 1022.3
20260503231514 52 245 4.0 9.0 0.00 0.00 0.00 78 1022.2
20260503230016 52 250 3.0 9.0 0.00 0.00 0.00 78 1022.3
20260503224515 53 250 5.0 9.0 0.00 0.00 0.00 77 1022.3
20260503223020 53 250 3.0 9.0 0.00 0.00 0.00 76 1022.3
20260503221521 54 252 6.0 10.0 0.00 0.00 0.00 75 1022.3
20260503220017 54 251 4.0 8.0 0.00 0.00 0.00 75 1022.2
20260503214515 55 265 5.0 10.0 0.00 0.00 0.00 74 1022.0
20260503213036 55 259 5.0 8.0 0.00 0.00 0.00 73 1021.8
20260503211524 56 250 2.0 3.0 0.00 0.00 0.00 72 1021.9
20260503210026 56 257 3.0 6.0 0.00 0.00 0.00 71 1021.8
20260503204521 57 232 4.0 5.0 0.00 0.00 0.00 70 1021.9
20260503203016 57 231 2.0 3.0 0.00 0.00 0.00 70 1021.6
20260503201559 58 233 2.0 6.0 0.00 0.00 0.00 68 1021.7
20260503200014 59 226 1.0 4.0 0.00 0.00 0.00 66 1021.5
20260503194549 60 229 0.0 2.0 0.00 0.00 0.00 65 1021.3
20260503193017 61 227 0.0 1.0 0.00 0.00 0.00 63 1021.2
20260503190028 62 213 0.0 6.0 0.00 0.00 0.00 61 1020.9
20260503184546 62 235 4.0 9.0 0.00 0.00 0.00 60 1020.6
20260503183023 63 246 5.0 12.0 0.00 0.00 0.00 60 1020.4
20260503181521 63 242 4.0 11.0 0.00 0.00 0.00 60 1020.4
20260503180022 63 217 6.0 12.0 0.00 0.00 0.00 59 1020.3
20260503174514 64 208 6.0 10.0 0.00 0.00 0.00 58 1020.1
20260503173011 64 226 5.0 10.0 0.00 0.00 0.00 57 1020.0
20260503171514 65 277 7.0 13.0 0.00 0.00 0.00 57 1019.9
20260503081516 58 160 0.0 1.0 0.00 0.00 0.00 53 1023.4
20260503071513 53 160 0.0 0.0 0.00 0.00 0.00 58 1024.1
20260503054524 45 275 0.0 0.0 0.00 0.00 0.00 74 1024.0
20260503053015 44 306 0.0 0.0 0.00 0.00 0.00 76 1024.0
20260503051514 42 321 0.0 0.0 0.00 0.00 0.00 78 1023.9
20260503050016 41 321 0.0 0.0 0.00 0.00 0.00 79 1023.9
20260503044532 41 320 0.0 0.0 0.00 0.00 0.00 78 1023.8
20260503043014 40 320 0.0 0.0 0.00 0.00 0.00 79 1023.7
20260503041518 40 360 0.0 0.0 0.00 0.00 0.00 79 1023.6
20260503040014 40 360 0.0 0.0 0.00 0.00 0.00 79 1023.4
20260503034529 40 360 0.0 0.0 0.00 0.00 0.00 79 1023.3
20260503033033 40 360 0.0 0.0 0.00 0.00 0.00 78 1023.4
20260503031532 40 360 0.0 0.0 0.00 0.00 0.00 76 1023.4
20260503030028 41 360 0.0 0.0 0.00 0.00 0.00 76 1023.4
20260503024510 41 360 0.0 0.0 0.00 0.00 0.00 75 1023.4
20260503023028 42 360 0.0 0.0 0.00 0.00 0.00 73 1023.4
20260503021548 42 360 0.0 0.0 0.00 0.00 0.00 73 1023.4